Flag for Thailand Weather past 2 weeks in Hat Yai, Thailand

Now
77 °F

Partly cloudy.


Feels Like: 78 °F
Forecast: 75 / 90 °F
Wind: 2 mph from North

Location: Hat Yai Airport

Current Time: Oct 26, 2014 at 1:24:47 AM

Latest Report: Oct 26, 2014 at 1:00 AM


Visibility: N/A

Pressure: 29.86 "Hg

Humidity: 94%

Dew point: 75 °F

Location of Hat YaiLocation

Historic Weather in Hat Yai — Graph

°F

Hat Yai temperature yesterday

Maximum temperature yesterday: 93 °F (at 2:30 PM)
Minimum temperature yesterday: 75 °F (at 12:30 AM)
Average temperature yesterday: 80 °F

Past Weeks' High & Low Weather Summary

 TemperatureHumidityPressure
High93 °F (Oct 25, 2:30 PM)100% (Oct 11, 2:30 AM)29.95 "Hg (Oct 11, 2:30 AM)
Low72 °F (Oct 13, 12:30 AM)53% (Oct 25, 2:30 PM)29.71 "Hg (Oct 19, 3:00 PM)
Average80 °F88%29.84 "Hg
* Reported Midnight between Oct 10 and Oct 11 — Midnight between Oct 25 and Oct 26, Hat Yai, Weather by CustomWeather, © 2014

Note: Actual official high and low records may vary slightly from our data, if they occured in-between our weather recording intervals... More about our weather records

Advertising

Hat Yai weather history for previous 24 hours

 ConditionsComfort  
Time TempWeatherWind HumidityBarometerVisibility
12:00 AM
Oct 26
77 °FPartly cloudy.No wind100%29.89 "HgN/A
11:30 PM
Oct 25
77 °FPartly cloudy.No wind100%29.89 "HgN/A
11:00 PM77 °FPartly cloudy.3 mph100%29.89 "HgN/A
10:30 PM77 °FPartly cloudy.2 mph100%29.89 "HgN/A
10:00 PM77 °FPartly cloudy.2 mph100%29.89 "HgN/A
9:30 PM77 °FPartly cloudy.2 mph100%29.89 "HgN/A
9:00 PM77 °FPartly cloudy.2 mph100%29.86 "HgN/A
8:30 PM77 °FPartly cloudy.2 mph100%29.86 "HgN/A
8:00 PM77 °FPartly cloudy.3 mph100%29.83 "HgN/A
7:30 PM77 °FPassing clouds.3 mph100%29.80 "HgN/A
7:00 PM77 °FLight rain. Partly cloudy.3 mph100%29.80 "HgN/A
6:30 PM77 °FLight rain. Partly cloudy.5 mph94%29.80 "HgN/A
6:00 PM79 °FThunderstorms. Partly cloudy.5 mph89%29.80 "Hg2 mi
5:30 PM79 °FThunderstorms. Broken clouds.8 mph89%29.80 "HgN/A
5:00 PM81 °FThunderstorms. Broken clouds.8 mph84%29.77 "HgN/A
4:30 PM84 °FThunderstorms. Broken clouds.7 mph74%29.77 "HgN/A
4:00 PM88 °FBroken clouds.2 mph70%29.74 "HgN/A
3:30 PM90 °FBroken clouds.3 mph63%29.74 "HgN/A
3:00 PM91 °FBroken clouds.5 mph56%29.74 "HgN/A
2:30 PM93 °FBroken clouds.3 mph53%29.77 "HgN/A
2:00 PM91 °FBroken clouds.2 mph56%29.77 "HgN/A
1:30 PM90 °FBroken clouds.3 mph63%29.80 "HgN/A
1:00 PM90 °FBroken clouds.5 mph63%29.83 "HgN/A
12:30 PM90 °FPartly sunny.6 mph63%29.83 "HgN/A
12:00 PM90 °FPartly sunny.6 mph63%29.83 "HgN/A
11:30 AM88 °FPartly sunny.8 mph66%29.86 "HgN/A
11:00 AM86 °FBroken clouds.5 mph70%29.86 "HgN/A
10:30 AM86 °FBroken clouds.6 mph75%29.86 "HgN/A
10:00 AM84 °FBroken clouds.5 mph79%29.89 "HgN/A
9:30 AM82 °FBroken clouds.6 mph89%29.89 "HgN/A
9:00 AM81 °FPartly sunny.6 mph89%29.89 "HgN/A
8:30 AM81 °FPartly sunny.8 mph89%29.89 "Hg6 mi
8:00 AM77 °FPartly sunny.3 mph94%29.89 "Hg5 mi
7:30 AM75 °FPartly sunny.2 mph100%29.89 "Hg5 mi
7:00 AM75 °FPartly sunny.No wind100%29.86 "Hg4 mi
6:30 AM75 °FFog.No wind94%29.86 "Hg2 mi
6:00 AM75 °FFog.3 mph94%29.83 "Hg1 mi
5:30 AM75 °FFog.2 mph94%29.83 "Hg1 mi
5:00 AM75 °FFog.2 mph100%29.83 "Hg1 mi
4:30 AM75 °FFog.2 mph100%29.83 "Hg1 mi
4:00 AM75 °FFog.2 mph100%29.80 "Hg1 mi
3:30 AM75 °FPartly cloudy.3 mph94%29.80 "Hg4 mi
3:00 AM75 °FPartly cloudy.No wind94%29.80 "Hg5 mi
2:30 AM75 °FPartly cloudy.No wind94%29.83 "Hg5 mi
2:00 AM75 °FPartly cloudy.2 mph94%29.83 "Hg5 mi
1:30 AM75 °FPartly cloudy.2 mph94%29.83 "Hg6 mi
1:00 AM75 °FPartly cloudy.3 mph100%29.83 "HgN/A
Weather by CustomWeather, © 2014

See weather overviewHow to use our weather pages